STARLINK-1270 (45237 NORAD) Tracking and Keplerian Element Data

This shows tracking and keplerian element data for the satellite.

Feedback or suggestion? Click here.




ElementValue
Catalog45237
NameSTARLINK-1270
Epoch Orbit657
Epoch Day88.25001157
Epoch Year2020
RAAN72.2435
Inclination52.9988
Eccentricity0.0001388
Argument of Perigee61.2584
Mean Anonmoly129.51
Mean Motion15.6273329
Decay Rate0.00019286
L11 45237U 20012BM 20088.25001157 .00019286 00000-0 21612-3 0 9996
L22 45237 52.9988 72.2435 0001388 61.2584 129.5100 15.62733290 6577

Live tracking and technical data element details for STARLINK-1270 (NORAD 45237). STARLINK-1270 can be tracked NOW for your location showing map with azimuth and elevation plus other details from your city location.

Track the satellite on the map from your city or location and see movement details for azimuth, elevation, latitude, longitude, range, height, and movement on the map or in text.







IsCatalogInMostPopularTable: catalog: 45237, numindb: 16
Update: records affected: 1



GetName: 45237 STARLINK-1270

Hit Count: updated at: Tue, 31 Mar 2020 12:02:10 GMT